[[{"header":{"parameterUnit":"m.s-1","parameterCategory":1,"la1":30.2991,"la2":30.254,"lo1":-89.0895,"lo2":-89.0444,"dy":0.0017,"dx":0.0017,"nx":28,"ny":28,"refTime":"2023-06-21T21:00:00:Z","depth":0,"parameterNumber":2,"parameterNumberName":"U-component_of_WINDS"},"data":[0,0,0,0,0,0,0,0,0,0,0,0,0,0,0,0,0,0,0,0,0,0,0,0,0,0,0,0,0,0,0,0,0,0,0,0,0,0,0,0,0,0,0,0,0,0,0,0,0,0,0,0,0,0,0,0,0,0,2.0239,2.024,0,2.034,2.0341,2.0342,2.0246,2.0242,2.0238,2.0235,2.0356,2.0362,2.0369,0,0,0,0,0,0,0,0,0,0,0,0,0,1.9982,1.9987,2.0239,2.024,2.0242,2.034,2.0341,2.0342,2.0247,2.0242,2.0237,2.0233,2.0353,2.0361,2.037,0,0,0,0,0,0,0,0,0,0,0,0,0,2.009,1.9989,2.0239,2.0205,2.0203,2.0339,2.0341,2.0343,2.0248,2.0242,2.0236,2.0231,2.0351,2.0361,2.0371,2.0551,0,0,2.0402,2.0407,0,0,0,0,0,0,0,0,2.0084,2.0099,2.0209,2.0208,2.0206,2.0274,2.0294,2.0413,2.0249,2.0232,2.0235,2.0228,2.0334,2.0346,2.0378,2.0556,2.0561,2.0403,2.0409,2.0414,2.0417,0,0,0,0,0,0,0,2.0076,2.0094,2.0279,2.0211,2.0209,2.0191,2.02,2.0316,2.0315,2.0233,2.0226,2.0238,2.0333,2.0368,2.038,2.0563,2.0403,2.0412,2.0418,2.0422,2.0895,2.0901,0,0,0,0,0,0,2.007,2.0089,2.0276,2.0282,2.0128,2.02,2.021,2.0258,2.0313,2.0316,2.0243,2.0233,2.0353,2.0368,2.0384,2.0598,2.0414,2.0423,2.0429,2.0889,2.0897,2.0904,0,0,0,0,0,0,2.0065,2.0087,2.0272,2.0184,2.0206,2.0211,2.0266,2.0263,2.0298,2.0321,2.0322,2.0278,2.0349,2.0369,2.0509,2.0601,2.0428,2.0437,2.0881,2.0891,2.09,2.1028,0,0,0,0,0,0,2.0058,2.0086,2.015,2.0186,2.0211,2.0391,2.0271,2.027,2.0314,2.0303,2.0354,2.0358,2.0346,2.0494,2.0519,2.0612,2.0445,2.0873,2.0886,2.0897,2.1015,2.104,2.1062,0,0,0,0,0,2.0049,2.0186,2.0154,2.0177,2.029,2.0396,2.0411,2.039,2.0322,2.039,2.0404,2.0356,2.0586,2.0509,2.0536,2.0634,2.0867,2.0882,2.0896,2.1005,2.1035,2.1061,0,0,0,0,0,0,2.0169,2.019,2.0155,2.0307,2.0349,2.0379,2.0464,2.0423,2.0491,2.0478,2.0455,2.0468,2.0615,2.0638,2.0552,2.0811,2.0717,2.0737,2.079,2.0819,2.0842,2.0834,2.0454,0,0,0,0,0,2.0211,2.0289,2.0307,2.044,2.0462,2.0459,2.0505,2.0484,2.053,2.055,2.0574,2.0626,2.0709,2.0766,2.0844,2.1018,2.1029,2.1099,2.1122,2.1141,2.116,2.1254,2.1286,2.0951,2.0951,2.0951,0,0,2.0303,2.0325,2.0377,2.0464,2.0494,2.0581,2.0476,2.0572,2.0638,2.0567,2.0697,2.0718,2.0774,2.0931,2.1002,2.0955,2.1254,2.1159,2.1174,2.1183,2.1273,2.1304,2.1332,2.0961,2.0959,2.0957,0,0,2.0514,2.0537,2.0649,2.0681,2.0727,2.0724,2.0751,2.0787,2.0796,2.0925,2.0874,2.0955,2.1099,2.1141,2.1181,2.1407,2.1367,2.1434,2.1557,2.1649,2.1676,2.1699,2.1781,2.181,2.1452,2.1453,2.1453,0,2.0624,2.0746,2.0714,2.0813,2.0854,2.0788,2.0904,2.0939,2.1011,2.1044,2.0989,2.1168,2.1201,2.1367,2.1422,2.1457,2.149,2.1428,2.1673,2.1696,2.1718,2.1796,2.1826,2.1461,2.146,2.1459,2.1458,0,2.088,2.0966,2.1053,2.1116,2.1167,2.1276,2.1265,2.1322,2.1297,2.1302,2.1437,2.1473,2.1558,2.1596,2.1576,2.176,2.173,2.1675,2.158,2.1758,2.1831,2.186,2.1472,2.1469,2.1467,2.1465,0,0,2.117,2.1212,2.1244,2.1272,2.1317,2.1387,2.1493,2.157,2.162,2.1672,2.1763,2.1886,2.1835,2.1881,2.1865,2.1946,2.2124,2.1881,2.1883,2.1926,2.2331,2.2373,2.2407,2.2096,2.2102,2.2106,2.2327,0,2.1382,2.1559,2.1533,2.1707,2.1788,2.1726,2.1819,2.186,2.1868,2.1942,2.1952,2.2039,2.1965,2.1992,2.2069,2.2086,2.2205,2.2069,2.2186,2.219,2.2173,2.2445,2.2489,2.2695,2.2355,2.236,2.2363,0,2.1653,2.1708,2.1888,2.1919,2.1953,2.2036,2.2104,2.2174,2.2221,2.2221,2.2271,2.224,2.2352,2.2254,2.241,2.2318,2.2364,2.238,2.2387,2.2399,2.2288,2.2465,2.2761,2.2792,2.2408,2.2404,2.2401,0,2.1847,2.1967,2.209,2.2116,2.2156,2.2216,2.2237,2.2277,2.2325,2.2387,2.2418,2.2495,2.2538,2.26,2.2593,2.2521,2.2752,2.2653,2.2759,2.2759,2.2811,2.2808,2.312,2.284,2.2839,2.2839,2.2838,0,2.2087,2.22,2.2177,2.2253,2.2379,2.2351,2.2478,2.2492,2.2528,2.2609,2.2563,2.2641,2.2626,2.2706,2.2702,2.2832,2.2853,2.2859,2.2857,2.2863,2.2863,2.2894,2.288,2.2847,2.2845,2.2844,2.2842,0,2.2325,2.2314,2.2444,2.2469,2.2479,2.2571,2.2595,2.267,2.2672,2.2776,2.2799,2.2805,2.2897,2.2895,2.3001,2.2998,2.3159,2.314,2.3141,2.3138,2.3244,2.3234,2.3588,2.3633,2.3323,2.3326,2.3328,0,2.2479,2.2563,2.2597,2.2644,2.2667,2.2746,2.2793,2.277,2.2822,2.2881,2.2949,2.3035,2.3102,2.3252,2.327,2.3351,2.3335,2.3453,2.3347,2.3351,2.3338,2.3333,2.3343,2.3474,2.3478,2.3481,2.3483,0,2.2754,2.2744,2.2809,2.2874,2.293,2.2982,2.3029,2.3073,2.3055,2.3117,2.3206,2.3258,2.3363,2.3451,2.3528,2.3556,2.3519,2.3515,2.3544,2.3553,2.355,2.3554,2.3199,2.3508,2.3506,2.3504,2.3502,2.3501,2.2956,2.3027,2.3061,2.3137,2.3169,2.3214,2.3284,2.3293,2.3365,2.3445,2.3429,2.353,2.3577,2.3676,2.371,2.3793,2.3752,2.3794,2.3805,2.3816,2.3828,2.3536,2.3807,2.3806,2.3806,2.3805,2.3805,0,2.3229,2.3246,2.3316,2.338,2.3441,2.3393,2.3444,2.3499,2.3587,2.363,2.3696,2.38,2.3885,2.3908,2.399,2.4052,2.4037,2.4074,2.4071,2.4078,2.3859,2.3826,2.4085,2.4085,2.4085,2.4085,2.4085,2.4085,2.3378,2.3497,2.3491,2.3627,2.3646,2.374,2.3772,2.3815,2.3849,2.3966,2.4033,2.4045,2.4082,2.4166,2.4243,2.4248,2.4282,2.4326,2.4325,2.4121,2.4093,2.4066,2.4035,2.4334,2.4334,2.4537,2.4539,2.454]},{"header":{"parameterUnit":"m.s-1","parameterCategory":1,"la1":30.2991,"la2":30.254,"lo1":-89.0895,"lo2":-89.0444,"dy":0.0017,"dx":0.0017,"nx":28,"ny":28,"refTime":"2023-06-21T21:00:00:Z","depth":0,"parameterNumber":3,"parameterNumberName":"V-component_of_WINDS"},"data":[0,0,0,0,0,0,0,0,0,0,0,0,0,0,0,0,0,0,0,0,0,0,0,0,0,0,0,0,0,0,0,0,0,0,0,0,0,0,0,0,0,0,0,0,0,0,0,0,0,0,0,0,0,0,0,0,0,0,0.9327,0.9328,0,0.9392,0.9393,0.9393,0.9342,0.9339,0.9337,0.9335,0.9411,0.9415,0.9419,0,0,0,0,0,0,0,0,0,0,0,0,0,0.9165,0.9169,0.9327,0.9328,0.9329,0.9392,0.9393,0.9394,0.9342,0.9339,0.9336,0.9334,0.941,0.9415,0.942,0,0,0,0,0,0,0,0,0,0,0,0,0,0.9234,0.917,0.9327,0.931,0.931,0.9392,0.9393,0.9394,0.9342,0.9339,0.9336,0.9333,0.9408,0.9414,0.9421,0.9526,0,0,0.9439,0.9442,0,0,0,0,0,0,0,0,0.923,0.924,0.9312,0.9312,0.9311,0.9355,0.9364,0.9439,0.9343,0.933,0.9335,0.9331,0.9396,0.9403,0.9423,0.9529,0.9533,0.944,0.9444,0.9446,0.9448,0,0,0,0,0,0,0,0.9225,0.9237,0.9353,0.9313,0.9313,0.9302,0.9308,0.9378,0.9382,0.9331,0.9328,0.9335,0.9395,0.9417,0.9424,0.9534,0.944,0.9445,0.9449,0.9451,0.9729,0.9733,0,0,0,0,0,0,0.9221,0.9233,0.9351,0.9355,0.9261,0.9307,0.9314,0.9344,0.9381,0.9383,0.9338,0.9333,0.9408,0.9417,0.9427,0.9554,0.9446,0.9452,0.9456,0.9726,0.973,0.9734,0,0,0,0,0,0,0.9218,0.9232,0.9349,0.9293,0.9307,0.9314,0.9348,0.9348,0.9369,0.9386,0.9387,0.936,0.9406,0.9418,0.9501,0.9556,0.9455,0.946,0.9721,0.9727,0.9732,0.9808,0,0,0,0,0,0,0.9213,0.9231,0.927,0.9294,0.931,0.942,0.9351,0.9351,0.9379,0.9372,0.9406,0.9409,0.9404,0.9492,0.9507,0.9562,0.9465,0.9717,0.9724,0.973,0.98,0.9815,0.9827,0,0,0,0,0,0.9208,0.9291,0.9273,0.9287,0.9358,0.9423,0.9432,0.9423,0.9383,0.9424,0.9433,0.9407,0.9545,0.9501,0.9517,0.9575,0.9713,0.9722,0.973,0.9794,0.9812,0.9827,0,0,0,0,0,0,0.9278,0.9294,0.9274,0.9367,0.9393,0.9414,0.9465,0.9442,0.9483,0.9476,0.9465,0.9473,0.956,0.9575,0.9525,0.9679,0.9624,0.9636,0.9667,0.9684,0.9697,0.9695,0.947,0,0,0,0,0,0.9303,0.9352,0.9364,0.9445,0.9459,0.9459,0.9487,0.9476,0.9505,0.9518,0.9534,0.9565,0.9615,0.9649,0.9697,0.98,0.9808,0.9848,0.9861,0.9872,0.9885,0.9942,0.996,0.9761,0.9761,0.9761,0,0,0.9359,0.9373,0.9405,0.9459,0.9479,0.9532,0.947,0.9529,0.9569,0.9528,0.9607,0.9619,0.9653,0.9746,0.9789,0.9762,0.994,0.9883,0.9891,0.9898,0.9952,0.9971,0.9988,0.9767,0.9766,0.9765,0,0,0.9487,0.9501,0.957,0.9589,0.9618,0.9617,0.9633,0.9656,0.9662,0.9739,0.9709,0.9757,0.9844,0.9869,0.9894,1.0026,1.0005,1.0041,1.0115,1.017,1.0186,1.02,1.0251,1.0269,1.0052,1.0052,1.0053,0,0.9553,0.9629,0.961,0.967,0.9696,0.9654,0.9726,0.9747,0.9791,0.981,0.9778,0.9884,0.9904,1.0004,1.0035,1.0055,1.0076,1.0041,1.0185,1.0199,1.0211,1.026,1.0278,1.0057,1.0056,1.0056,1.0056,0,0.971,0.9763,0.9816,0.9855,0.9886,0.9952,0.9944,0.9977,0.9962,0.9965,1.0045,1.0066,1.0117,1.0138,1.0126,1.0236,1.0219,1.0185,1.0131,1.0235,1.0281,1.0299,1.0064,1.0062,1.0061,1.0059,0,0,0.9892,0.9915,0.9935,0.9952,0.9978,1.002,1.0083,1.0129,1.0159,1.0189,1.0244,1.0315,1.0284,1.0311,1.03,1.0348,1.0455,1.0309,1.031,1.034,1.0581,1.061,1.0631,1.0437,1.0441,1.0443,1.0579,0,1.0024,1.0132,1.0114,1.022,1.027,1.0229,1.0284,1.0307,1.031,1.0354,1.0358,1.041,1.0362,1.0379,1.0423,1.0432,1.0504,1.0421,1.0494,1.0496,1.0492,1.0654,1.0686,1.0813,1.0596,1.0599,1.0601,0,1.0194,1.0227,1.0337,1.0353,1.0373,1.0423,1.0463,1.0504,1.0529,1.0527,1.0555,1.0535,1.06,1.0539,1.0631,1.0575,1.0602,1.061,1.0615,1.0627,1.056,1.0675,1.0853,1.0875,1.0628,1.0626,1.0624,0,1.0321,1.0391,1.0466,1.0481,1.0501,1.0538,1.0548,1.0569,1.0597,1.0631,1.065,1.0693,1.0718,1.0752,1.0745,1.07,1.0839,1.0777,1.0844,1.0845,1.0881,1.0881,1.1072,1.0889,1.0889,1.0888,1.0888,0,1.0474,1.0544,1.0523,1.057,1.0647,1.0625,1.0703,1.0708,1.0726,1.0775,1.0741,1.0788,1.0772,1.0819,1.0813,1.0891,1.0902,1.0905,1.0904,1.0912,1.0912,1.0935,1.0928,1.0893,1.0892,1.0891,1.089,0,1.0632,1.0619,1.0699,1.0709,1.0713,1.077,1.078,1.0825,1.0821,1.0884,1.0897,1.0894,1.0947,1.094,1.1,1.0996,1.1095,1.108,1.1087,1.1085,1.1155,1.115,1.1372,1.1402,1.1195,1.1196,1.1198,0,1.0733,1.0786,1.0799,1.0828,1.084,1.0886,1.0913,1.0892,1.0922,1.0952,1.0994,1.1042,1.1081,1.1167,1.1173,1.1219,1.1208,1.1282,1.1216,1.1222,1.1216,1.1215,1.1222,1.1299,1.1301,1.1303,1.1304,0,1.0916,1.0906,1.0945,1.0982,1.1014,1.1042,1.1067,1.1093,1.1074,1.1109,1.1161,1.119,1.1248,1.1299,1.134,1.1354,1.1328,1.1323,1.1342,1.1355,1.1358,1.1362,1.1129,1.1321,1.1319,1.1318,1.1317,1.1316,1.1053,1.1097,1.1113,1.1158,1.1173,1.1196,1.1239,1.1239,1.128,1.1324,1.1308,1.1368,1.139,1.1442,1.1459,1.1507,1.1481,1.1507,1.1515,1.1523,1.1534,1.1344,1.1514,1.1514,1.1513,1.1513,1.1512,0,1.1238,1.1245,1.1285,1.1319,1.1354,1.1318,1.1344,1.1377,1.1428,1.1448,1.1485,1.1545,1.1592,1.1598,1.1643,1.168,1.167,1.1694,1.1694,1.1698,1.1553,1.1534,1.1702,1.1702,1.1701,1.1701,1.1701,1.1701,1.1339,1.1414,1.1405,1.1487,1.1493,1.1549,1.1566,1.1588,1.1604,1.1671,1.1708,1.171,1.1725,1.177,1.1813,1.1813,1.1835,1.1864,1.1861,1.1727,1.1708,1.1691,1.1673,1.1867,1.1868,1.2004,1.2005,1.2006]}]]